Regional Weather Roundup
Issued by NWS Charleston, SC

Current Version | Previous Version | Graphics & Text | Print | Product List | Glossary On
Versions: 1 2 3 4 5 6 7 8 9 10 11 12 13 14 15 16 17 18 19 20 21 22 23 24 25 26 27 28 29 30 31 32 33 34 35 36 37 38 39 40 41 42 43 44 45 46 47 48 49 50
000
ASUS42 KCHS 271312
RWRCHS

REGIONAL WEATHER ROUNDUP
NATIONAL WEATHER SERVICE CHARLESTON SC
900 AM EDT TUE JUN 27 2017

NOTE: "FAIR" INDICATES FEW OR NO CLOUDS BELOW 12,000 FEET WITH NO
SIGNIFICANT WEATHER AND/OR OBSTRUCTIONS TO VISIBILITY.

NOT ALL STATIONS ARE QUALITY CONTROLLED. USE DATA WITH CAUTION...
ESPECIALLY DEWPOINT OBSERVATIONS.

SCZ027-030-031-034>040-042>050-271400-
...SOUTHEAST SOUTH CAROLINA...

CITY           SKY/WX    TMP DP  RH WIND       PRES   REMARKS
N CHARLESTON   MOSUNNY   80  67  64 CALM      30.04R
WATERFRONT PRK   N/A     78  68  71 VRB2      30.01S
JOHNS ISLAND   FAIR      81  70  69 CALM      30.04R
PINOPOLIS        N/A     79  68  69 VRB2      29.97R
MONCKS CORNER  FAIR      75  68  78 N3        30.05R
SUMMERVILLE    FAIR      77  66  69 CALM      30.06R
BEAUFORT MCAS  MOSUNNY   80  73  79 CALM      30.04R
BEAUFORT ARPT  PTSUNNY   79  70  73 NE5       30.04R
HILTON HEAD IS PTSUNNY   81  72  74 N6        30.04R
WALTERBORO     MOSUNNY   75  68  78 N3        30.06R
ALLENDALE      FAIR      77  70  78 CALM      30.04S

...SOUTHERN MIDLANDS AND PEE DEE...

CITY           SKY/WX    TMP DP  RH WIND       PRES   REMARKS
GEORGETOWN     FAIR      75  64  69 CALM      30.06R
KINGSTREE      FAIR      73  64  73 CALM      30.05R
ORANGEBURG     SUNNY    N/A N/A N/A MISG      30.05S
BARNWELL       FAIR      77  70  78 CALM      30.06R
AIKEN          FAIR      75  64  69 W3        30.09R
MANNING        FAIR      73  70  88 W3        30.05S
COLUMBIA       CLOUDY    75  65  70 CALM      30.04R
SUMTER         NOT AVBL
FLORENCE       SUNNY     76  65  68 W3        30.04S
MYRTLE BEACH   SUNNY     75  64  69 NW6       30.05R
N MYRTLE BEACH CLOUDY    75  65  70 CALM      30.04R

$$

GAZ063-065-086>088-099>101-113>116-118-119-134>141-150-271400-
...SOUTHEAST GEORGIA...

CITY           SKY/WX    TMP DP  RH WIND       PRES   REMARKS
SAVANNAH ARPT  CLOUDY    78  71  79 CALM      30.05R
HUNTER AAF     NOT AVBL
FORT STEWART   NOT AVBL
STATESBORO     MOSUNNY   77  77 100 N3        30.05R
SYLVANIA       MOSUNNY   76  73  90 CALM      30.06R
CLAXTON        FAIR      76  73  92 CALM      30.05R

...CSRA...CENTRAL AND FAR SOUTHEAST GEORGIA...

CITY           SKY/WX    TMP DP  RH WIND       PRES   REMARKS
THOMSON        MOSUNNY   72  61  68 NE3       30.12R
AUGUSTA-BUSH   SUNNY     77  68  73 CALM      30.05R
AUGUSTA-DANIEL PTSUNNY   76  61  59 NW3       30.07R
SWAINSBORO     FAIR      77  72  83 NW6       30.06S
VIDALIA        MOSUNNY   77  73  88 CALM      30.05S
EASTMAN        FAIR      76  75  96 N3        30.08S
HAZLEHURST     FAIR      78  78  98 CALM      30.04S
ALMA           MOSUNNY   76  73  91 CALM      30.04R
WAYCROSS       PTSUNNY   78  78 100 CALM      30.04R
JESUP          CLOUDY    77  72  83 CALM      30.04S FOG
BAXLEY         CLOUDY    77  77 100 NE3       30.04S
BRUNSWICK      MOSUNNY   79  77  94 N5        30.03S
SAINT SIMONS   MOSUNNY   80  76  87 N8        30.02R

$$

SCZ027-028-034-036>038-045-046-048>050-GAZ119-141-271400-
...LAKE AND SUPPLEMENTAL COASTAL OBSERVATIONS...

STATION/POSITION TIME  TEMP    WIND        PRES    WAVE   SWELL
                       AIR SEA DIR/SP/G            HT/PER HT/PER/DIR
                 (UTC) (F)     (DEG/KT/KT) (MB)    (FT/S) (FT/S/D)
WINYAH BAY       1145   72     320/  3     1017.0
LAKE MURRAY      1220   74     280/  5/  6 1016.6
ACE BASIN NERRS  1145   76        CALM     1017.0
FORT PULASKI     1248   78 84   60/  3/  4 1017.4R
SAPELO ISLAND    1200   76      10/  3     1016.0

$$

ANZ835-935-AMZ111-154-330-350-352-354-370-450-454-472-271400-
...C-MAN AND BUOY OBSERVATIONS...

STATION/POSITION TIME  TEMP    WIND        PRES    WAVE   SWELL
                       AIR SEA DIR/SP/G            HT/PER HT/PER/DIR
                 (UTC) (F)     (DEG/KT/KT) (MB)    (FT/S) (FT/S/D)
BUOY 41004       1250   79 81   30/  8/ 12 1017.0R   2/ 7   2/140/ 7
BUOY 41008       1250   76 81  110/  8/ 10 1016.7R   2/ 8   2/130/ 8
FOLLY BEACH CMAN 1200   78     350/  6/  7 1017.4R
CAPERS NEARSHORE 1208   84 83   20/  8/ 10 1016.6S
FRIPP NEARSHORE  1208   80 83   50/  8/ 10 1016.4R


STATION/POSITION TIME  TEMP    WIND        PRES    WAVE   SWELL
                       AIR SEA DIR/SP/G            HT/PER HT/PER/DIR
                 (UTC) (F)     (DEG/KT/KT) (MB)    (FT/S) (FT/S/D)
5E ST. MARYS GA  1230      80                N/A     2/ 8
FRYING PAN BUOY  1250   78 80  350/ 10/ 12 1016.6R   2/ 8   2/130/ 8
BUOY 41025       1250   77 81  350/  8/ 10 1016.1F   2/ 8   2/ 70/ 8
CAPE LOOKOUT NC  1200   75     350/  5/  6 1016.4R
BUOY 41002       1150   76 80  250/ 16/ 19 1016.6    4/ 6   2/ 80/10
BUOY 41010       1250   83 83  210/ 12/ 14 1016.4R   3/ 4   2/140/ 8
ST AUGUSTINE FL  1300   76 78  360/  5/  6 1017.0R


$$




USA.gov is the U.S. government's official web portal to all federal, state and local government web resources and services.